Year,Month,Day,Hour,Minute,Value (Times are PST for temperature in C)
2017,06,02,00,00,13.70
2017,06,02,00,01,13.70
2017,06,02,00,02,13.70
2017,06,02,00,03,13.60
2017,06,02,00,04,13.60
2017,06,02,00,05,13.60
2017,06,02,00,06,13.60
2017,06,02,00,07,13.50
2017,06,02,00,08,13.50
2017,06,02,00,09,13.40
2017,06,02,00,10,13.40
2017,06,02,00,11,13.40
2017,06,02,00,12,13.40
2017,06,02,00,13,13.40
2017,06,02,00,14,13.30
2017,06,02,00,15,13.30
2017,06,02,00,16,13.30
2017,06,02,00,17,13.30
2017,06,02,00,18,13.30
2017,06,02,00,19,13.20
2017,06,02,00,20,13.20
2017,06,02,00,21,13.20
2017,06,02,00,22,13.20
2017,06,02,00,23,13.20
2017,06,02,00,24,13.20
2017,06,02,00,25,13.20
2017,06,02,00,26,13.10
2017,06,02,00,27,13.10
2017,06,02,00,28,13.10
2017,06,02,00,29,13.10
2017,06,02,00,30,13.10
2017,06,02,00,31,13.10
2017,06,02,00,32,13.10
2017,06,02,00,33,13.10
2017,06,02,00,34,13.10
2017,06,02,00,35,13.10
2017,06,02,00,36,13.10
2017,06,02,00,37,13.10
2017,06,02,00,38,13.10
2017,06,02,00,39,13.10
2017,06,02,00,40,13.20
2017,06,02,00,41,13.20
2017,06,02,00,42,13.10
2017,06,02,00,43,13.10
2017,06,02,00,44,13.10
2017,06,02,00,45,13.10
2017,06,02,00,46,13.10
2017,06,02,00,47,13.10
2017,06,02,00,48,13.10
2017,06,02,00,49,13.10
2017,06,02,00,50,13.10
2017,06,02,00,51,13.10
2017,06,02,00,52,13.10
2017,06,02,00,53,13.10
2017,06,02,00,54,13.10
2017,06,02,00,55,13.10
2017,06,02,00,56,13.10
2017,06,02,00,57,13.10
2017,06,02,00,58,13.10
2017,06,02,00,59,13.10
2017,06,02,01,00,13.10
2017,06,02,01,01,13.10
2017,06,02,01,02,13.10
2017,06,02,01,03,13.10
2017,06,02,01,04,13.10
2017,06,02,01,05,13.10
2017,06,02,01,06,13.10
2017,06,02,01,07,13.00
2017,06,02,01,08,13.00
2017,06,02,01,09,13.10
2017,06,02,01,10,13.10
2017,06,02,01,11,13.10
2017,06,02,01,12,13.10
2017,06,02,01,13,13.10
2017,06,02,01,14,13.10
2017,06,02,01,15,13.10
2017,06,02,01,16,13.10
2017,06,02,01,17,13.10
2017,06,02,01,18,13.10
2017,06,02,01,19,13.10
2017,06,02,01,20,13.10
2017,06,02,01,21,13.10
2017,06,02,01,22,13.10
2017,06,02,01,23,13.10
2017,06,02,01,24,13.10
2017,06,02,01,25,13.10
2017,06,02,01,26,13.10
2017,06,02,01,27,13.10
2017,06,02,01,28,13.10
2017,06,02,01,29,13.10
2017,06,02,01,30,13.10
2017,06,02,01,31,13.10
2017,06,02,01,32,13.10
2017,06,02,01,33,13.10
2017,06,02,01,34,13.10
2017,06,02,01,35,13.10
2017,06,02,01,36,13.10
2017,06,02,01,37,13.10
2017,06,02,01,38,13.10
2017,06,02,01,39,13.10
2017,06,02,01,40,13.10
2017,06,02,01,41,13.10
2017,06,02,01,42,13.10
2017,06,02,01,43,13.10
2017,06,02,01,44,13.10
2017,06,02,01,45,13.10
2017,06,02,01,46,13.10
2017,06,02,01,47,13.10
2017,06,02,01,48,13.10
2017,06,02,01,49,13.10
2017,06,02,01,50,13.10
2017,06,02,01,51,13.10
2017,06,02,01,52,13.10
2017,06,02,01,53,13.10
2017,06,02,01,54,13.00
2017,06,02,01,55,13.00
2017,06,02,01,56,13.00
2017,06,02,01,57,13.00
2017,06,02,01,58,13.00
2017,06,02,01,59,12.90
2017,06,02,02,00,13.00
2017,06,02,02,01,12.90
2017,06,02,02,02,12.90
2017,06,02,02,03,12.90
2017,06,02,02,04,13.00
2017,06,02,02,05,13.00
2017,06,02,02,06,13.00
2017,06,02,02,07,13.10
2017,06,02,02,08,13.10
2017,06,02,02,09,13.10
2017,06,02,02,10,13.10
2017,06,02,02,11,13.10
2017,06,02,02,12,13.10
2017,06,02,02,13,13.20
2017,06,02,02,14,13.10
2017,06,02,02,15,13.10
2017,06,02,02,16,13.10
2017,06,02,02,17,13.20
2017,06,02,02,18,13.20
2017,06,02,02,19,13.20
2017,06,02,02,20,13.20
2017,06,02,02,21,13.20
2017,06,02,02,22,13.20
2017,06,02,02,23,13.10
2017,06,02,02,24,13.10
2017,06,02,02,25,13.10
2017,06,02,02,26,13.10
2017,06,02,02,27,13.10
2017,06,02,02,28,13.10
2017,06,02,02,29,13.10
2017,06,02,02,30,13.10
2017,06,02,02,31,13.00
2017,06,02,02,32,13.00
2017,06,02,02,33,13.00
2017,06,02,02,34,13.00
2017,06,02,02,35,13.00
2017,06,02,02,36,12.90
2017,06,02,02,37,12.90
2017,06,02,02,38,12.90
2017,06,02,02,39,12.90
2017,06,02,02,40,12.90
2017,06,02,02,41,12.90
2017,06,02,02,42,12.90
2017,06,02,02,43,12.90
2017,06,02,02,44,12.90
2017,06,02,02,45,12.90
2017,06,02,02,46,12.90
2017,06,02,02,47,12.90
2017,06,02,02,48,12.90
2017,06,02,02,49,12.90
2017,06,02,02,50,12.90
2017,06,02,02,51,12.90
2017,06,02,02,52,12.90
2017,06,02,02,53,12.90
2017,06,02,02,54,13.00
2017,06,02,02,55,13.00
2017,06,02,02,56,13.00
2017,06,02,02,57,13.00
2017,06,02,02,58,13.00
2017,06,02,02,59,13.00
2017,06,02,03,00,13.00
2017,06,02,03,01,12.90
2017,06,02,03,02,12.90
2017,06,02,03,03,12.90
2017,06,02,03,04,12.90
2017,06,02,03,05,12.90
2017,06,02,03,06,12.90
2017,06,02,03,07,12.90
2017,06,02,03,08,12.90
2017,06,02,03,09,12.90
2017,06,02,03,10,12.80
2017,06,02,03,11,12.80
2017,06,02,03,12,12.80
2017,06,02,03,13,12.80
2017,06,02,03,14,12.80
2017,06,02,03,15,12.80
2017,06,02,03,16,12.80
2017,06,02,03,17,12.80
2017,06,02,03,18,12.80
2017,06,02,03,19,12.80
2017,06,02,03,20,12.80
2017,06,02,03,21,12.80
2017,06,02,03,22,12.80
2017,06,02,03,23,12.80
2017,06,02,03,24,12.90
2017,06,02,03,25,12.90
2017,06,02,03,26,12.90
2017,06,02,03,27,12.90
2017,06,02,03,28,12.90
2017,06,02,03,29,12.90
2017,06,02,03,30,12.90
2017,06,02,03,31,13.00
2017,06,02,03,32,13.00
2017,06,02,03,33,13.00
2017,06,02,03,34,13.00
2017,06,02,03,35,13.00
2017,06,02,03,36,12.90
2017,06,02,03,37,12.90
2017,06,02,03,38,12.90
2017,06,02,03,39,12.90
2017,06,02,03,40,12.90
2017,06,02,03,41,12.90
2017,06,02,03,42,12.90
2017,06,02,03,43,12.90
2017,06,02,03,44,12.90
2017,06,02,03,45,12.90
2017,06,02,03,46,12.90
2017,06,02,03,47,12.90
2017,06,02,03,48,12.90
2017,06,02,03,49,12.90
2017,06,02,03,50,12.90
2017,06,02,03,51,12.90
2017,06,02,03,52,12.90
2017,06,02,03,53,12.90
2017,06,02,03,54,12.90
2017,06,02,03,55,12.90
2017,06,02,03,56,12.90
2017,06,02,03,57,12.90
2017,06,02,03,58,12.90
2017,06,02,03,59,12.80
2017,06,02,04,00,12.80
2017,06,02,04,01,12.80
2017,06,02,04,02,12.80
2017,06,02,04,03,12.80
2017,06,02,04,04,12.80
2017,06,02,04,05,12.80
2017,06,02,04,06,12.80
2017,06,02,04,07,12.80
2017,06,02,04,08,12.70
2017,06,02,04,09,12.70
2017,06,02,04,10,12.70
2017,06,02,04,11,12.70
2017,06,02,04,12,12.60
2017,06,02,04,13,12.60
2017,06,02,04,14,12.60
2017,06,02,04,15,12.60
2017,06,02,04,16,12.60
2017,06,02,04,17,12.50
2017,06,02,04,18,12.50
2017,06,02,04,19,12.50
2017,06,02,04,20,12.40
2017,06,02,04,21,12.40
2017,06,02,04,22,12.40
2017,06,02,04,23,12.40
2017,06,02,04,24,12.40
2017,06,02,04,25,12.40
2017,06,02,04,26,12.40
2017,06,02,04,27,12.40
2017,06,02,04,28,12.40
2017,06,02,04,29,12.40
2017,06,02,04,30,12.40
2017,06,02,04,31,12.40
2017,06,02,04,32,12.40
2017,06,02,04,33,12.40
2017,06,02,04,34,12.40
2017,06,02,04,35,12.40
2017,06,02,04,36,12.40
2017,06,02,04,37,12.40
2017,06,02,04,38,12.40
2017,06,02,04,39,12.40
2017,06,02,04,40,12.40
2017,06,02,04,41,12.40
2017,06,02,04,42,12.40
2017,06,02,04,43,12.40
2017,06,02,04,44,12.40
2017,06,02,04,45,12.40
2017,06,02,04,46,12.40
2017,06,02,04,47,12.40
2017,06,02,04,48,12.40
2017,06,02,04,49,12.40
2017,06,02,04,50,12.40
2017,06,02,04,51,12.40
2017,06,02,04,52,12.40
2017,06,02,04,53,12.40
2017,06,02,04,54,12.40
2017,06,02,04,55,12.30
2017,06,02,04,56,12.30
2017,06,02,04,57,12.30
2017,06,02,04,58,12.30
2017,06,02,04,59,12.30
2017,06,02,05,00,12.30
2017,06,02,05,01,12.30
2017,06,02,05,02,12.20
2017,06,02,05,03,12.20
2017,06,02,05,04,12.20
2017,06,02,05,05,12.20
2017,06,02,05,06,12.20
2017,06,02,05,07,12.20
2017,06,02,05,08,12.20
2017,06,02,05,09,12.20
2017,06,02,05,10,12.20
2017,06,02,05,11,12.20
2017,06,02,05,12,12.20
2017,06,02,05,13,12.20
2017,06,02,05,14,12.20
2017,06,02,05,15,12.20
2017,06,02,05,16,12.20
2017,06,02,05,17,12.20
2017,06,02,05,18,12.20
2017,06,02,05,19,12.10
2017,06,02,05,20,12.10
2017,06,02,05,21,12.10
2017,06,02,05,22,12.10
2017,06,02,05,23,12.10
2017,06,02,05,24,12.10
2017,06,02,05,25,12.10
2017,06,02,05,26,12.10
2017,06,02,05,27,12.00
2017,06,02,05,28,12.00
2017,06,02,05,29,12.00
2017,06,02,05,30,12.00
2017,06,02,05,31,12.00
2017,06,02,05,32,12.00
2017,06,02,05,33,12.00
2017,06,02,05,34,12.00
2017,06,02,05,35,12.00
2017,06,02,05,36,12.00
2017,06,02,05,37,12.00
2017,06,02,05,38,12.10
2017,06,02,05,39,12.10
2017,06,02,05,40,12.10
2017,06,02,05,41,12.10
2017,06,02,05,42,12.10
2017,06,02,05,43,12.10
2017,06,02,05,44,12.10
2017,06,02,05,45,12.10
2017,06,02,05,46,12.10
2017,06,02,05,47,12.10
2017,06,02,05,48,12.10
2017,06,02,05,49,12.10
2017,06,02,05,50,12.10
2017,06,02,05,51,12.10
2017,06,02,05,52,12.10
2017,06,02,05,53,12.10
2017,06,02,05,54,12.10
2017,06,02,05,55,12.10
2017,06,02,05,56,12.10
2017,06,02,05,57,12.10
2017,06,02,05,58,12.10
2017,06,02,05,59,12.10
2017,06,02,06,00,12.10
2017,06,02,06,01,12.10
2017,06,02,06,02,12.10
2017,06,02,06,03,12.10
2017,06,02,06,04,12.10
2017,06,02,06,05,12.10
2017,06,02,06,06,12.10
2017,06,02,06,07,12.10
2017,06,02,06,08,12.10
2017,06,02,06,09,12.10
2017,06,02,06,10,12.10
2017,06,02,06,11,12.10
2017,06,02,06,12,12.10
2017,06,02,06,13,12.10
2017,06,02,06,14,12.10
2017,06,02,06,15,12.10
2017,06,02,06,16,12.10
2017,06,02,06,17,12.10
2017,06,02,06,18,12.20
2017,06,02,06,19,12.20
2017,06,02,06,20,12.20
2017,06,02,06,21,12.20
2017,06,02,06,22,12.20
2017,06,02,06,23,12.20
2017,06,02,06,24,12.20
2017,06,02,06,25,12.20
2017,06,02,06,26,12.30
2017,06,02,06,27,12.30
2017,06,02,06,28,12.30
2017,06,02,06,29,12.30
2017,06,02,06,30,12.30
2017,06,02,06,31,12.30
2017,06,02,06,32,12.40
2017,06,02,06,33,12.40
2017,06,02,06,34,12.40
2017,06,02,06,35,12.40
2017,06,02,06,36,12.40
2017,06,02,06,37,12.40
2017,06,02,06,38,12.40
2017,06,02,06,39,12.40
2017,06,02,06,40,12.40
2017,06,02,06,41,12.40
2017,06,02,06,42,12.50
2017,06,02,06,43,12.50
2017,06,02,06,44,12.50
2017,06,02,06,45,12.50
2017,06,02,06,46,12.50
2017,06,02,06,47,12.50
2017,06,02,06,48,12.60
2017,06,02,06,49,12.60
2017,06,02,06,50,12.60
2017,06,02,06,51,12.60
2017,06,02,06,52,12.60
2017,06,02,06,53,12.60
2017,06,02,06,54,12.60
2017,06,02,06,55,12.60
2017,06,02,06,56,12.60
2017,06,02,06,57,12.60
2017,06,02,06,58,12.60
2017,06,02,06,59,12.70
2017,06,02,07,00,12.70
2017,06,02,07,01,12.70
2017,06,02,07,02,12.70
2017,06,02,07,03,12.70
2017,06,02,07,04,12.70
2017,06,02,07,05,12.70
2017,06,02,07,06,12.70
2017,06,02,07,07,12.70
2017,06,02,07,08,12.70
2017,06,02,07,09,12.80
2017,06,02,07,10,12.70
2017,06,02,07,11,12.70
2017,06,02,07,12,12.70
2017,06,02,07,13,12.70
2017,06,02,07,14,12.70
2017,06,02,07,15,12.70
2017,06,02,07,16,12.80
2017,06,02,07,17,12.80
2017,06,02,07,18,12.80
2017,06,02,07,19,12.80
2017,06,02,07,20,12.80
2017,06,02,07,21,12.80
2017,06,02,07,22,12.80
2017,06,02,07,23,12.90
2017,06,02,07,24,12.90
2017,06,02,07,25,13.00
2017,06,02,07,26,13.00
2017,06,02,07,27,13.10
2017,06,02,07,28,13.10
2017,06,02,07,29,13.20
2017,06,02,07,30,13.30
2017,06,02,07,31,13.30
2017,06,02,07,32,13.30
2017,06,02,07,33,13.30
2017,06,02,07,34,13.30
2017,06,02,07,35,13.30
2017,06,02,07,36,13.30
2017,06,02,07,37,13.30
2017,06,02,07,38,13.30
2017,06,02,07,39,13.30
2017,06,02,07,40,13.20
2017,06,02,07,41,13.30
2017,06,02,07,42,13.30
2017,06,02,07,43,13.30
2017,06,02,07,44,13.30
2017,06,02,07,45,13.30
2017,06,02,07,46,13.30
2017,06,02,07,47,13.30
2017,06,02,07,48,13.30
2017,06,02,07,49,13.30
2017,06,02,07,50,13.30
2017,06,02,07,51,13.30
2017,06,02,07,52,13.30
2017,06,02,07,53,13.40
2017,06,02,07,54,13.40
2017,06,02,07,55,13.40
2017,06,02,07,56,13.40
2017,06,02,07,57,13.40
2017,06,02,07,58,13.40
2017,06,02,07,59,13.50
2017,06,02,08,00,13.50
2017,06,02,08,01,13.50
2017,06,02,08,02,13.50
2017,06,02,08,03,13.40
2017,06,02,08,04,13.40
2017,06,02,08,05,13.50
2017,06,02,08,06,13.50
2017,06,02,08,07,13.60
2017,06,02,08,08,13.60
2017,06,02,08,09,13.60
2017,06,02,08,10,13.70
2017,06,02,08,11,13.70
2017,06,02,08,12,13.70
2017,06,02,08,13,13.70
2017,06,02,08,14,13.70
2017,06,02,08,15,13.70
2017,06,02,08,16,13.70
2017,06,02,08,17,13.70
2017,06,02,08,18,13.90
2017,06,02,08,19,13.90
2017,06,02,08,20,13.90
2017,06,02,08,21,13.90
2017,06,02,08,22,13.90
2017,06,02,08,23,13.90
2017,06,02,08,24,13.90
2017,06,02,08,25,13.90
2017,06,02,08,26,13.90
2017,06,02,08,27,13.90
2017,06,02,08,28,13.90
